Hourly Weather Roundup
Issued by NWS Central Illinois

Home | Current Version | Previous Version | Text Only | Print | Product List | Glossary On
Versions: 1 2 3 4 5 6 7 8 9 10 11 12 13 14 15 16 17 18 19 20 21 22 23 24 25 26 27 28 29 30 31 32 33 34 35 36 37 38 39 40 41 42 43 44 45 46 47 48 49 50
000
NZUS43 KILX 272010
HWRILX

AREA WEATHER ROUNDUP
NATIONAL WEATHER SERVICE, LINCOLN IL
300 PM CDT SUN JUL 27 2014


CITY           SKY/WX    TMP DP  RH WIND       PRES   REMARKS
BLOOMINGTON    MOSUNNY   81  57  43 W23G29    29.83S HX  81
CHAMPAIGN      MOSUNNY   83  67  58 W23G32    29.80S HX  85
DECATUR        SUNNY     85  63  47 W21G32    29.83S HX  86
FLORA          SUNNY     86  69  57 NW13G18   29.84F HX  90
GALESBURG      PTSUNNY   78  62  56 NW21G28   29.88R HX  80
JACKSONVILLE   SUNNY     84  62  48 W16G23    29.89F HX  84
LACON          PTSUNNY   81  58  46 NW17G25   29.82R HX  81
LAWRENCEVILLE  SUNNY     87  71  58 W13       29.82S HX  93
LITCHFIELD     MOSUNNY   86  65  50 W21G26    29.87S HX  88
$$


CITY           SKY/WX    TMP DP  RH WIND       PRES   REMARKS
LINCOLN        SUNNY     85  58  40 W7G21     29.81S HX  84
MACOMB         PTSUNNY   78  59  52 NW20G32   29.90S
MATTOON        MOSUNNY   84  68  58 W20       29.81F HX  87
MT CARMEL AP   MOSUNNY   90  72  55 W14       29.82S HX  96
OLNEY-NOBLE AP PTSUNNY   86  72  62 W9        29.83F HX  92
PARIS          MOSUNNY   85  71  60 W17G23    29.79F HX  90
PEORIA         MOSUNNY   83  57  41 W16G28    29.84S HX  82
PONTIAC        SUNNY     82  61  47 W23G31    29.79S HX  83
RANTOUL        SUNNY     84  61  44 W23G31    29.79S HX  84
ROBINSON       SUNNY     87  73  63 W12       29.81F HX  94
SPRINGFIELD    SUNNY     85  61  44 NW15G24   29.86S HX  85
TAYLORVILLE    SUNNY     82  64  54 W15G28    29.85S HX  84
$$

...REGIONAL REPORTS...


CITY           SKY/WX    TMP DP  RH WIND       PRES   REMARKS
CHICAGO O`HARE MOSUNNY   83  55  38 NW30G38   29.71S HX  82
KANKAKEE       PTSUNNY   82  62  51 W18G30    29.75S HX  83
MOLINE         PTSUNNY   79  58  48 NW23G33   29.86R HX  80
MOUNT VERNON   SUNNY     88  68  51 W5        29.86F HX  91
PITTSFIELD     SUNNY     85  58  41 NW13G22   29.91F HX  84
QUINCY         SUNNY     83  59  44 NW23G30   29.91S HX  83
ROCKFORD       PTSUNNY   77  54  44 NW22G33   29.79R
$$


CITY           SKY/WX    TMP DP  RH WIND       PRES   REMARKS
BURLINGTON     MOSUNNY   79  61  53 NW18G35   29.91R HX  80
CEDAR RAPIDS   PTSUNNY   75  58  55 NW25G35   29.91S
DES MOINES     PTSUNNY   77  56  48 NW24G31   30.00S
KIRKSVILLE     MOSUNNY   83  57  41 NW16G26   29.98R HX  82
OTTUMWA        PTSUNNY   76  59  55 NW25      29.97R
ST LOUIS       MOSUNNY   93  59  31 NW21G31   29.89F HX  92
$$


CITY           SKY/WX    TMP DP  RH WIND       PRES   REMARKS
TERRE HAUTE    MOSUNNY   86  70  58 W15G21    29.78F HX  90
EVANSVILLE     MOSUNNY   89  73  59 W14G22    29.83S HX  97
INDIANAPOLIS   PTSUNNY   84  69  60 W17G25    29.74F HX  88
LAFAYETTE      CLOUDY    77  68  73 NW12G30   29.73S THUNDER
MADISON        PTSUNNY   72  60  66 NW14G23   29.79R
MILWAUKEE      PTSUNNY   69  58  67 NW12      29.73R
$$




USA.gov is the U.S. government's official web portal to all federal, state and local government web resources and services.